Weather History for KDFW - March, 2014

Change the Weather History Date:

Tuesday, March 18, 2014

  Actual Average Record
Temperature  
Mean Temperature 67 °F 58 °F  
Max Temperature 82 °F 69 °F 92 °F (1907)
Min Temperature 51 °F 48 °F 20 °F (1923)
Degree Days  
Heating Degree Days 0 8  
Month to date heating degree days 241 178  
Since 1 July heating degree days 2414 2110  
Cooling Degree Days 2 1  
Month to date cooling degree days 8 16  
Year to date cooling degree days 8 23  
Growing Degree Days 16 (Base 50)    
Moisture  
Dew Point 36 °F    
Average Humidity 33    
Maximum Humidity 50    
Minimum Humidity 16    
Precipitation  
Precipitation 0.00 in 0.11 in 2.35 in (2008)
Month to date precipitation 1.39 2.05  
Year to date precipitation 2.13 6.84  
Snow  
Snow 0.00 in 0.00 in 1.60 in (1934)
Month to date snowfall 0.1 0.1  
Since 1 July snowfall 2.9 1.1  
Snow Depth 0.00 in    
Sea Level Pressure  
Sea Level Pressure 29.63 in    
Wind  
Wind Speed 20 mph (South)    
Max Wind Speed 33 mph    
Max Gust Speed 39 mph    
Visibility 9 miles    
Events      
T = Trace of Precipitation, MM = Missing Value Source: NWS Daily Summary

Daily Weather History Graph

Daily Weather History Graph

Search for Another Location

Airport or City:

Trip Planner

Search our weather history database for the weather conditions in past years. The results will help you decide how hot, cold, wet, or windy it might be!

Date:

Astronomy

Mar. 18, 2014 Rise Set
Actual Time 7:34 AM CDT 7:38 PM CDT
Civil Twilight 7:09 AM CDT 8:02 PM CDT
Nautical Twilight 6:41 AM CDT 8:31 PM CDT
Astronomical Twilight 6:12 AM CDT 9:00 PM CDT
Moon 9:48 PM CDT (3/18) 8:31 AM CDT (3/18)
Length of Visible Light 12h 53m
Length of Day
12h 03m
Waning Gibbous, 96% of the Moon is Illuminated
Mar 18
Waning Gibbous
Mar 23
Last Quarter
Mar 30
New
Apr 7
First Quarter
Apr 15
Full

Hourly Weather History & Observations

Time (CDT) Temp. Dew Point Humidity Pressure Visibility Wind Dir Wind Speed Gust Speed Precip Events Conditions
12:53 AM 52.0 °F 30.0 °F 43% 29.68 in 10.0 mi SSE 15.0 mph - N/A   Mostly Cloudy
1:53 AM 52.0 °F 28.9 °F 41% 29.67 in 10.0 mi South 17.3 mph - N/A   Mostly Cloudy
2:53 AM 52.0 °F 30.0 °F 43% 29.65 in 10.0 mi South 18.4 mph - N/A   Mostly Cloudy
3:53 AM 52.0 °F 30.0 °F 43% 29.61 in 10.0 mi South 21.9 mph 31.1 mph N/A   Mostly Cloudy
4:53 AM 51.1 °F 30.9 °F 46% 29.61 in 10.0 mi South 16.1 mph - N/A   Mostly Cloudy
5:53 AM 52.0 °F 33.1 °F 49% 29.59 in 10.0 mi South 23.0 mph 31.1 mph N/A   Mostly Cloudy
6:53 AM 52.0 °F 34.0 °F 50% 29.59 in 10.0 mi South 21.9 mph - N/A   Mostly Cloudy
7:53 AM 52.0 °F 34.0 °F 50% 29.60 in 10.0 mi South 23.0 mph 29.9 mph N/A   Mostly Cloudy
8:53 AM 54.0 °F 35.1 °F 49% 29.61 in 10.0 mi South 25.3 mph - N/A   Mostly Cloudy
9:53 AM 57.0 °F 37.0 °F 47% 29.62 in 10.0 mi South 26.5 mph 32.2 mph N/A   Mostly Cloudy
10:53 AM 64.0 °F 37.0 °F 37% 29.62 in 10.0 mi SSW 23.0 mph - N/A   Partly Cloudy
11:53 AM 68.0 °F 37.0 °F 32% 29.63 in 10.0 mi South 23.0 mph - N/A   Partly Cloudy
12:53 PM 73.0 °F 37.9 °F 28% 29.62 in 10.0 mi South 18.4 mph 26.5 mph N/A   Partly Cloudy
1:53 PM 78.1 °F 39.0 °F 25% 29.59 in 10.0 mi South 21.9 mph 27.6 mph N/A   Scattered Clouds
2:26 PM 80.1 °F 42.1 °F 26% 29.59 in 10.0 mi South 17.3 mph - N/A   Scattered Clouds
2:53 PM 80.1 °F 43.0 °F 27% 29.57 in 10.0 mi South 18.4 mph - N/A   Partly Cloudy
3:53 PM 82.0 °F 42.1 °F 24% 29.54 in 10.0 mi South 20.7 mph 27.6 mph N/A   Partly Cloudy
4:53 PM 82.0 °F 44.1 °F 26% 29.54 in 10.0 mi South 16.1 mph 28.8 mph N/A   Partly Cloudy
5:53 PM 81.0 °F 44.1 °F 27% 29.53 in 10.0 mi South 25.3 mph 34.5 mph N/A   Partly Cloudy
6:53 PM 79.0 °F 46.0 °F 31% 29.55 in 10.0 mi South 20.7 mph 34.5 mph N/A   Partly Cloudy
7:53 PM 77.0 °F 46.0 °F 33% 29.65 in 10.0 mi SSW 18.4 mph 25.3 mph N/A   Partly Cloudy
8:53 PM 75.0 °F 46.0 °F 36% 29.71 in 10.0 mi West 8.1 mph - N/A   Overcast
9:53 PM 75.0 °F 26.1 °F 16% 29.75 in 5.0 mi WNW 10.4 mph - N/A   Haze
10:53 PM 69.1 °F 27.0 °F 21% 29.81 in 6.0 mi North 25.3 mph 39.1 mph N/A   Haze
11:08 PM 68.0 °F 27.0 °F 21% 29.84 in 5.0 mi NNW 23.0 mph 31.1 mph N/A   Haze
11:53 PM 66.0 °F 27.0 °F 23% 29.86 in 4.0 mi NNW 24.2 mph 31.1 mph N/A   Haze